PST,Max TemperatureF,Mean TemperatureF,Min TemperatureF,Max Dew PointF,MeanDew PointF,Min DewpointF,Max Humidity, Mean Humidity, Min Humidity, Max Sea Level PressureIn, Mean Sea Level PressureIn, Min Sea Level PressureIn, Max VisibilityMiles, Mean VisibilityMiles, Min VisibilityMiles, Max Wind SpeedMPH, Mean Wind SpeedMPH, Max Gust SpeedMPH,PrecipitationIn, CloudCover, Events, WindDirDegrees
2012-12-1,50,42,34,42,37,31,96,75,53,29.73,29.65,29.56,10,10,3,25,8,32,0.16,5,Rain,175
2012-12-2,46,41,36,40,36,32,100,80,60,29.85,29.44,29.19,10,9,2,20,9,25,0.42,7,Rain,199
2012-12-3,49,44,38,38,35,32,92,77,61,30.08,29.97,29.82,10,10,10,23,10,29,0.01,7,Rain,201
2012-12-4,48,43,37,46,41,34,100,85,70,29.90,29.80,29.71,10,7,1,22,9,28,0.53,8,Rain,149
2012-12-5,48,40,32,45,30,23,86,66,45,30.18,30.00,29.70,10,10,10,23,11,30,T,3,,202
2012-12-6,35,32,28,34,31,27,100,88,75,30.16,30.03,29.94,10,5,1,10,5,13,0.06,8,Snow,168
2012-12-7,37,29,20,34,30,19,100,91,82,30.05,29.89,29.73,10,5,0,17,4,23,0.22,6,Fog-Rain-Snow,178
2012-12-8,32,20,8,24,15,7,100,79,58,30.37,30.17,29.96,10,9,1,10,3,13,0.00,0,,301
2012-12-9,28,17,5,27,21,3,100,92,83,30.50,30.31,30.17,10,5,1,5,1,5,0.07,7,Snow,330
2012-12-10,30,27,23,29,27,25,100,96,92,30.30,30.19,30.01,10,8,2,12,3,13,0.00,8,,204
2012-12-11,36,33,30,34,32,28,100,91,82,30.02,29.72,29.55,10,6,0,6,2,7,0.03,8,Fog-Snow,83
2012-12-12,33,33,32,34,32,32,100,98,96,30.00,29.73,29.55,9,3,0,7,3,9,0.13,8,Fog-Snow,171
2012-12-13,32,27,22,32,29,21,100,96,92,30.06,29.96,29.82,10,6,0,9,2,12,0.01,8,Fog-Snow,221
2012-12-14,30,26,22,29,27,21,100,96,92,29.97,29.82,29.75,7,2,0,3,0,5,0.06,8,Fog-Snow,148
2012-12-15,32,30,27,30,28,27,100,89,78,29.97,29.82,29.59,10,4,0,7,2,8,0.17,8,Fog-Snow,96
2012-12-16,30,29,28,30,27,25,100,93,85,29.81,29.69,29.56,10,8,1,14,7,,0.04,8,Snow,184
2012-12-17,36,32,27,26,24,21,78,71,64,29.81,29.72,29.59,10,10,10,23,10,29,T,5,,198
2012-12-18,32,23,14,25,21,14,100,89,78,30.02,29.91,29.75,10,6,0,17,4,22,0.01,7,Fog-Snow,185
2012-12-19,30,25,20,28,25,21,100,86,72,30.09,29.99,29.91,10,4,0,14,4,17,T,8,Fog-Snow,127
2012-12-20,36,33,29,33,30,28,100,91,82,29.95,29.85,29.77,10,4,0,10,4,16,0.20,8,Fog-Snow,79
2012-12-21,37,35,33,34,33,32,100,96,92,29.95,29.88,29.79,10,8,2,9,5,12,0.27,8,Rain-Snow,54
2012-12-22,39,33,26,36,33,27,100,93,85,29.86,29.73,29.60,10,9,2,16,6,20,0.19,6,Rain,122
2012-12-23,38,31,24,33,29,25,100,88,75,29.93,29.79,29.61,10,6,0,16,6,21,0.11,6,Fog-Snow,35
2012-12-24,34,31,28,32,30,28,100,96,92,30.21,29.91,29.63,10,5,0,16,5,20,0.21,8,Fog-Snow,107
2012-12-25,34,29,23,30,28,24,100,91,82,30.21,30.01,29.81,10,7,0,13,5,15,0.01,7,Fog-Snow,32
2012-12-26,34,28,22,27,26,21,100,88,75,29.97,29.88,29.78,10,8,2,12,4,14,0.01,8,Snow,21
2012-12-27,31,27,23,29,27,22,100,96,92,30.18,30.05,29.91,10,7,0,9,2,10,0.02,8,Fog-Snow,188
2012-12-28,31,28,24,28,27,24,92,89,85,30.25,30.20,30.11,10,9,2,7,1,8,0.00,8,,323
2012-12-29,27,18,8,25,20,9,100,94,88,30.25,30.17,30.11,10,4,0,9,1,13,0.03,7,Fog-Snow,182
2012-12-30,25,21,17,23,21,15,100,94,88,30.38,30.30,30.20,10,8,2,10,2,13,0.00,8,,192
2012-12-31,26,16,5,23,16,4,100,91,81,30.53,30.36,30.27,10,6,0,7,1,8,0.00,5,Fog,251